Alma, MI

6:10 AM EDT on August 23, 2019 (GMT -0400)
Gratiot Community

Weather History for KAMN - July, 2019

Change the Weather History Date:

Monday, July 22, 2019

  Actual Average Record
Temperature  
Mean Temperature 68 °F -  
Max Temperature 78 °F 82 °F 96 °F (1987)
Min Temperature 59 °F 58 °F 44 °F (2000)
Cooling Degree Days 4    
Growing Degree Days 18 (Base 50)    
Moisture  
Dew Point 49 °F    
Average Humidity 52    
Maximum Humidity 69    
Minimum Humidity 27    
Precipitation  
Precipitation 0.00 in - - ()
Sea Level Pressure  
Sea Level Pressure 30.00 in    
Wind  
Wind Speed 8 mph (NNW)    
Max Wind Speed 14 mph    
Max Gust Speed 21 mph    
Visibility 10 miles    
Events      
Averages and records for this station are not official NWS values.
T = Trace of Precipitation, MM = Missing Value Source: NWS Daily Summary

Daily Weather History Graph

Daily Weather History Graph

Search for Another Location

Airport or City:

Astronomy

Jul. 22, 2019 Rise Set
Actual Time 6:18 AM EDT 9:11 PM EDT
Civil Twilight 5:44 AM EDT 9:45 PM EDT
Nautical Twilight 5:02 AM EDT 10:27 PM EDT
Astronomical Twilight 4:12 AM EDT 11:17 PM EDT
Moon No Moon Rise 11:42 AM EDT (7/22)
Length of Visible Light 16h 00m
Length of Day
14h 53m
Waning Gibbous, 72% of the Moon is Illuminated
Jul 22
Waning Gibbous
Jul 24
Last Quarter
Jul 31
New
Aug 7
First Quarter
Aug 15
Full

Hourly Weather History & Observations

Time (EDT) Temp. Dew Point Humidity Pressure Visibility Wind Dir Wind Speed Gust Speed Precip Events Conditions
12:15 AM 69.8 °F 53.2 °F 56% 29.98 in 10.0 mi North 5.8 mph - N/A   Clear
12:37 AM 69.3 °F 53.6 °F 57% 29.96 in 10.0 mi North 8.1 mph - N/A   Clear
12:56 AM 68.9 °F 54.1 °F 59% 29.96 in 10.0 mi North 8.1 mph - N/A   Clear
1:15 AM 68.4 °F 54.7 °F 62% 29.96 in 10.0 mi NNW 9.2 mph - N/A   Clear
1:35 AM 68.0 °F 55.2 °F 64% 29.96 in 10.0 mi North 8.1 mph - N/A   Clear
1:59 AM 67.3 °F 55.8 °F 66% 29.97 in 10.0 mi North 8.1 mph - N/A   Clear
2:17 AM 67.1 °F 56.3 °F 68% 29.98 in 10.0 mi North 9.2 mph - N/A   Mostly Cloudy
2:35 AM 67.1 °F 55.8 °F 67% 29.98 in 10.0 mi North 10.4 mph - N/A   Overcast
2:36 AM 67.3 °F 55.6 °F 66% 29.98 in 10.0 mi North 10.4 mph - N/A   Overcast
2:55 AM 66.7 °F 54.7 °F 65% 29.98 in 10.0 mi NNE 9.2 mph - N/A   Scattered Clouds
3:15 AM 66.4 °F 54.7 °F 66% 29.98 in 10.0 mi North 8.1 mph - N/A   Scattered Clouds
3:38 AM 65.7 °F 55.4 °F 69% 29.98 in 10.0 mi North 9.2 mph - N/A   Clear
3:56 AM 65.7 °F 55.4 °F 69% 29.98 in 10.0 mi North 6.9 mph - N/A   Scattered Clouds
4:15 AM 65.5 °F 54.0 °F 66% 29.99 in 10.0 mi North 8.1 mph - N/A   Mostly Cloudy
4:16 AM 65.5 °F 54.1 °F 67% 29.99 in 10.0 mi North 6.9 mph - N/A   Mostly Cloudy
4:36 AM 65.3 °F 54.0 °F 67% 29.98 in 10.0 mi North 8.1 mph - N/A   Overcast
4:59 AM 64.9 °F 51.8 °F 62% 29.99 in 10.0 mi North 6.9 mph - N/A   Mostly Cloudy
5:17 AM 64.6 °F 52.5 °F 65% 29.99 in 10.0 mi North 4.6 mph - N/A   Overcast
5:35 AM 64.6 °F 52.9 °F 66% 29.99 in 10.0 mi NNW 5.8 mph - N/A   Overcast
5:36 AM 64.6 °F 52.9 °F 66% 29.99 in 10.0 mi North 5.8 mph - N/A   Overcast
5:55 AM 64.6 °F 51.8 °F 63% 29.99 in 10.0 mi North 4.6 mph - N/A   Overcast
5:56 AM 64.6 °F 51.8 °F 63% 29.99 in 10.0 mi North 4.6 mph - N/A   Overcast
6:15 AM 64.4 °F 52.3 °F 65% 29.99 in 10.0 mi North 6.9 mph - N/A   Overcast
6:20 AM 64.4 °F 52.7 °F 66% 29.99 in 10.0 mi North 5.8 mph - N/A   Overcast
6:38 AM 63.7 °F 52.2 °F 66% 30.01 in 10.0 mi NNW 6.9 mph - N/A   Overcast
6:56 AM 62.6 °F 50.9 °F 66% 30.01 in 10.0 mi NNW 6.9 mph - N/A   Mostly Cloudy
7:15 AM 62.4 °F 50.4 °F 65% 30.01 in 10.0 mi North 9.2 mph - N/A   Mostly Cloudy
7:16 AM 62.6 °F 50.2 °F 64% 30.01 in 10.0 mi North 9.2 mph - N/A   Mostly Cloudy
7:35 AM 63.1 °F 49.6 °F 61% 30.01 in 10.0 mi North 8.1 mph - N/A   Scattered Clouds
7:36 AM 63.3 °F 49.5 °F 61% 30.01 in 10.0 mi North 6.9 mph - N/A   Scattered Clouds
7:59 AM 63.5 °F 47.7 °F 56% 30.01 in 10.0 mi North 6.9 mph - N/A   Scattered Clouds
8:17 AM 64.2 °F 47.1 °F 54% 30.01 in 10.0 mi North 10.4 mph - N/A   Clear
8:35 AM 64.4 °F 46.6 °F 52% 30.01 in 10.0 mi North 6.9 mph - N/A   Clear
8:55 AM 64.4 °F 46.6 °F 52% 30.01 in 10.0 mi North 8.1 mph - N/A   Clear
8:56 AM 64.4 °F 46.6 °F 52% 30.01 in 10.0 mi North 8.1 mph - N/A   Clear
9:15 AM 64.8 °F 47.5 °F 53% 30.02 in 10.0 mi North 9.2 mph - N/A   Clear
9:20 AM 64.8 °F 47.8 °F 54% 30.02 in 10.0 mi NNW 8.1 mph - N/A   Clear
9:38 AM 63.0 °F 48.0 °F 58% 30.03 in 10.0 mi NNW 8.1 mph - N/A   Clear
9:56 AM 62.6 °F 49.1 °F 61% 30.03 in 10.0 mi NNW 11.5 mph 16.1 mph N/A   Scattered Clouds
10:15 AM 64.0 °F 49.6 °F 59% 30.02 in 10.0 mi NNW 10.4 mph - N/A   Clear
10:16 AM 64.0 °F 49.6 °F 59% 30.02 in 10.0 mi NNW 9.2 mph - N/A   Clear
10:35 AM 64.9 °F 50.5 °F 60% 30.02 in 10.0 mi NW 9.2 mph - N/A   Clear
10:59 AM 66.2 °F 50.0 °F 56% 30.02 in 10.0 mi NNW 10.4 mph - N/A   Clear
11:17 AM 66.4 °F 50.9 °F 57% 30.01 in 10.0 mi NW 11.5 mph - N/A   Clear
11:35 AM 67.3 °F 51.1 °F 56% 30.01 in 10.0 mi NW 6.9 mph - N/A   Clear
11:55 AM 69.1 °F 52.2 °F 55% 30.01 in 10.0 mi North 8.1 mph - N/A   Clear
12:15 PM 70.5 °F 53.1 °F 54% 30.01 in 10.0 mi NNW 8.1 mph - N/A   Scattered Clouds
12:38 PM 71.8 °F 53.4 °F 52% 30.01 in 10.0 mi NNW 10.4 mph 18.4 mph N/A   Mostly Cloudy
12:56 PM 70.5 °F 53.2 °F 54% 30.01 in 10.0 mi NNW 8.1 mph 16.1 mph N/A   Overcast
1:15 PM 71.2 °F 54.1 °F 55% 30.01 in 10.0 mi North 9.2 mph - N/A   Overcast
1:35 PM 71.8 °F 53.4 °F 52% 30.01 in 10.0 mi North 9.2 mph - N/A   Overcast
1:36 PM 72.0 °F 53.1 °F 51% 30.01 in 10.0 mi North 8.1 mph - N/A   Overcast
1:59 PM 73.6 °F 52.7 °F 48% 30.01 in 10.0 mi NNE 9.2 mph - N/A   Overcast
2:17 PM 73.8 °F 51.4 °F 45% 30.00 in 10.0 mi North 9.2 mph 16.1 mph N/A   Mostly Cloudy
2:35 PM 75.0 °F 50.5 °F 42% 30.00 in 10.0 mi NNE 6.9 mph 17.3 mph N/A   Mostly Cloudy
2:55 PM 75.2 °F 51.8 °F 44% 29.99 in 10.0 mi NNE 10.4 mph - N/A   Mostly Cloudy
2:56 PM 75.2 °F 51.1 °F 43% 29.99 in 10.0 mi NNE 8.1 mph - N/A   Mostly Cloudy
3:15 PM 75.4 °F 52.2 °F 44% 29.99 in 10.0 mi NNE 11.5 mph - N/A   Mostly Cloudy
3:20 PM 76.8 °F 50.7 °F 40% 29.99 in 10.0 mi North 8.1 mph - N/A   Mostly Cloudy
3:38 PM 75.6 °F 49.5 °F 40% 29.99 in 10.0 mi North 10.4 mph 19.6 mph N/A   Mostly Cloudy
3:56 PM 77.0 °F 48.0 °F 36% 29.99 in 10.0 mi North 11.5 mph 18.4 mph N/A   Mostly Cloudy
4:15 PM 77.7 °F 47.5 °F 34% 29.99 in 10.0 mi North 11.5 mph 19.6 mph N/A   Mostly Cloudy
4:16 PM 77.2 °F 47.3 °F 35% 29.99 in 10.0 mi North 10.4 mph 19.6 mph N/A   Mostly Cloudy
4:35 PM 78.3 °F 46.8 °F 33% 29.99 in 10.0 mi North 12.7 mph 16.1 mph N/A   Mostly Cloudy
4:36 PM 78.3 °F 46.2 °F 32% 29.99 in 10.0 mi North 11.5 mph 16.1 mph N/A   Mostly Cloudy
4:59 PM 78.6 °F 43.3 °F 29% 29.99 in 10.0 mi North 13.8 mph 20.7 mph N/A   Mostly Cloudy
5:17 PM 78.6 °F 41.9 °F 27% 29.99 in 10.0 mi North 8.1 mph - N/A   Scattered Clouds
5:35 PM 78.3 °F 42.3 °F 28% 29.99 in 10.0 mi NNW 10.4 mph 16.1 mph N/A   Scattered Clouds
5:36 PM 78.4 °F 41.9 °F 27% 29.99 in 10.0 mi NNW 9.2 mph 16.1 mph N/A   Scattered Clouds
5:55 PM 77.2 °F 43.0 °F 30% 29.99 in 10.0 mi NNW 11.5 mph 16.1 mph N/A   Scattered Clouds
5:56 PM 77.0 °F 42.8 °F 29% 29.99 in 10.0 mi NNW 12.7 mph 16.1 mph N/A   Scattered Clouds
6:15 PM 73.9 °F 44.6 °F 35% 29.99 in 10.0 mi NNW 6.9 mph - N/A   Clear
6:20 PM 73.6 °F 44.8 °F 36% 29.99 in 10.0 mi NNW 5.8 mph - N/A   Clear
6:38 PM 77.0 °F 40.6 °F 27% 29.99 in 10.0 mi NNW 13.8 mph - N/A   Scattered Clouds
6:56 PM 76.3 °F 40.3 °F 27% 30.00 in 10.0 mi North 9.2 mph 18.4 mph N/A   Scattered Clouds
7:15 PM 74.1 °F 39.9 °F 29% 30.00 in 10.0 mi North 8.1 mph - N/A   Scattered Clouds
7:35 PM 75.2 °F 40.8 °F 29% 30.00 in 10.0 mi North 6.9 mph - N/A   Mostly Cloudy
7:59 PM 73.8 °F 42.6 °F 33% 30.01 in 10.0 mi North 6.9 mph - N/A   Scattered Clouds
8:17 PM 72.3 °F 43.2 °F 35% 30.01 in 10.0 mi NNW 4.6 mph - N/A   Scattered Clouds
8:35 PM 71.8 °F 45.1 °F 38% 30.02 in 10.0 mi NW 5.8 mph - N/A   Scattered Clouds
8:36 PM 71.8 °F 45.3 °F 39% 30.02 in 10.0 mi NW 5.8 mph - N/A   Clear
8:55 PM 70.7 °F 44.6 °F 39% 30.03 in 10.0 mi NNW 6.9 mph - N/A   Clear
8:56 PM 70.5 °F 44.6 °F 39% 30.03 in 10.0 mi NW 8.1 mph - N/A   Clear
9:15 PM 69.1 °F 44.6 °F 41% 30.03 in 10.0 mi NW 5.8 mph - N/A   Clear
9:38 PM 67.3 °F 45.3 °F 45% 30.03 in 10.0 mi NW 4.6 mph - N/A   Clear
9:56 PM 66.0 °F 45.9 °F 48% 30.03 in 10.0 mi NW 3.5 mph - N/A   Scattered Clouds
10:15 PM 64.2 °F 46.6 °F 53% 30.04 in 10.0 mi NW 4.6 mph - N/A   Mostly Cloudy
10:35 PM 63.5 °F 45.7 °F 52% 30.04 in 10.0 mi NW 4.6 mph - N/A   Scattered Clouds
10:36 PM 63.5 °F 45.7 °F 52% 30.04 in 10.0 mi NW 5.8 mph - N/A   Scattered Clouds
10:59 PM 61.7 °F 46.4 °F 57% 30.04 in 10.0 mi WNW 5.8 mph - N/A   Clear
11:17 PM 60.8 °F 46.6 °F 59% 30.04 in 10.0 mi WNW 4.6 mph - N/A   Clear
11:35 PM 59.9 °F 46.8 °F 62% 30.04 in 10.0 mi WNW 4.6 mph - N/A   Clear
11:36 PM 59.9 °F 46.8 °F 62% 30.04 in 10.0 mi WNW 5.8 mph - N/A   Clear
11:55 PM 59.0 °F 47.3 °F 65% 30.04 in 10.0 mi WNW 4.6 mph - N/A   Clear
11:56 PM 59.0 °F 47.3 °F 65% 30.04 in 10.0 mi WNW 4.6 mph - N/A   Clear